Location: Meanaryar
(48.4161°N, 4.7315°W)
Time: 17:15:14
(UTC+00:00)

Abrixas rocket - Pass Details

Date: 18 September 2020
Orbit: 328 x 335 km, 48.4° (Epoch: 28 October)

Event Time Altitude Azimuth Distance (km) Brightness Sun altitude
Rises 19:31:01 0° 257° (WSW) 2,092 7.0 -11.7°
Reaches altitude 10° 19:33:01 10° 256° (WSW) 1,255 5.7 -12.0°
Maximum altitude 19:35:48 79° 170° (S) 339 1.7 -12.5°
Enters shadow 19:37:13 26° 86° (E) 701 2.8 -12.7°
